Time,TemperatureF,DewpointF,PressureIn,WindDirection,WindDirectionDegrees,WindSpeedMPH,WindSpeedGustMPH,Humidity,HourlyPrecipIn,Conditions,Clouds,dailyrainin,SolarRadiationWatts/m^2,SoftwareType,DateUTC
2013-02-06 00:01:00,26.0,25.0,-100.00,SSW,204,9.0,18.0,97,0.00,,,0.00,0.000000,,2013-02-06 07:01:00,
2013-02-06 00:32:00,26.0,25.0,-100.00,SW,222,8.0,11.0,97,0.00,,,0.00,0.000000,,2013-02-06 07:32:00,
2013-02-06 00:42:00,26.0,25.0,-100.00,SW,222,8.0,11.0,97,0.00,,,0.00,0.000000,,2013-02-06 07:42:00,
2013-02-06 00:52:00,26.0,25.0,-100.00,SW,222,8.0,11.0,97,0.00,,,0.00,0.000000,,2013-02-06 07:52:00,
2013-02-06 01:01:00,26.0,25.0,-100.00,SW,222,8.0,11.0,97,0.00,,,0.00,0.000000,,2013-02-06 08:01:00,
2013-02-06 01:32:00,24.0,22.0,-100.00,West,278,9.0,15.0,91,0.00,,,0.00,0.000000,,2013-02-06 08:32:00,
2013-02-06 01:42:00,24.0,22.0,-100.00,West,278,9.0,15.0,91,0.00,,,0.00,0.000000,,2013-02-06 08:42:00,
2013-02-06 01:53:00,24.0,22.0,-100.00,West,278,9.0,15.0,91,0.00,,,0.00,0.000000,,2013-02-06 08:53:00,
2013-02-06 02:01:00,24.0,22.0,-100.00,West,278,9.0,15.0,91,0.00,,,0.00,0.000000,,2013-02-06 09:01:00,
2013-02-06 02:32:00,24.0,22.0,-100.00,SSW,208,12.0,16.0,93,0.00,,,0.00,0.000000,,2013-02-06 09:32:00,
2013-02-06 02:42:00,24.0,22.0,-100.00,SSW,208,12.0,16.0,93,0.00,,,0.00,0.000000,,2013-02-06 09:42:00,
2013-02-06 02:52:00,24.0,22.0,-100.00,SSW,208,12.0,16.0,93,0.00,,,0.00,0.000000,,2013-02-06 09:52:00,
2013-02-06 03:01:00,24.0,22.0,-100.00,SSW,208,12.0,16.0,93,0.00,,,0.00,0.000000,,2013-02-06 10:01:00,
2013-02-06 03:32:00,24.0,20.0,-100.00,West,267,4.0,15.0,85,0.00,,,0.00,0.000000,,2013-02-06 10:32:00,
2013-02-06 03:42:00,24.0,20.0,-100.00,West,267,4.0,15.0,85,0.00,,,0.00,0.000000,,2013-02-06 10:42:00,
2013-02-06 03:52:00,24.0,20.0,-100.00,West,267,4.0,15.0,85,0.00,,,0.00,0.000000,,2013-02-06 10:52:00,
2013-02-06 04:01:00,24.0,20.0,-100.00,West,267,4.0,15.0,85,0.00,,,0.00,0.000000,,2013-02-06 11:01:00,
2013-02-06 04:32:00,23.0,19.0,-100.00,SSW,201,4.0,8.0,86,0.00,,,0.00,0.000000,,2013-02-06 11:32:00,
2013-02-06 04:42:00,23.0,19.0,-100.00,SSW,201,4.0,8.0,86,0.00,,,0.00,0.000000,,2013-02-06 11:42:00,
2013-02-06 04:52:00,23.0,19.0,-100.00,SSW,201,4.0,8.0,86,0.00,,,0.00,0.000000,,2013-02-06 11:52:00,
2013-02-06 05:01:00,23.0,19.0,-100.00,SSW,201,4.0,8.0,86,0.00,,,0.00,0.000000,,2013-02-06 12:01:00,
2013-02-06 05:32:00,22.0,20.0,-100.00,SW,214,7.0,10.0,91,0.00,,,0.00,0.000000,,2013-02-06 12:32:00,
2013-02-06 05:42:00,22.0,20.0,-100.00,SW,214,7.0,10.0,91,0.00,,,0.00,0.000000,,2013-02-06 12:42:00,
2013-02-06 05:52:00,22.0,20.0,-100.00,SW,214,7.0,10.0,91,0.00,,,0.00,0.000000,,2013-02-06 12:52:00,
2013-02-06 06:01:00,22.0,20.0,-100.00,SW,214,7.0,10.0,91,0.00,,,0.00,0.000000,,2013-02-06 13:01:00,
2013-02-06 06:32:00,22.0,20.0,-100.00,West,260,5.0,12.0,93,0.00,,,0.00,0.000000,,2013-02-06 13:32:00,
2013-02-06 06:42:00,22.0,20.0,-100.00,West,260,5.0,12.0,93,0.00,,,0.00,0.000000,,2013-02-06 13:42:00,
2013-02-06 06:52:00,22.0,20.0,-100.00,West,260,5.0,12.0,93,0.00,,,0.00,0.000000,,2013-02-06 13:52:00,
2013-02-06 07:01:00,22.0,20.0,-100.00,West,260,5.0,12.0,93,0.00,,,0.00,0.000000,,2013-02-06 14:01:00,
2013-02-06 07:32:00,22.0,21.0,-100.00,SW,235,7.0,11.0,94,0.00,,,0.00,0.000000,,2013-02-06 14:32:00,
2013-02-06 07:42:00,22.0,21.0,-100.00,SW,235,7.0,11.0,94,0.00,,,0.00,0.000000,,2013-02-06 14:42:00,
2013-02-06 07:52:00,22.0,21.0,-100.00,SW,235,7.0,11.0,94,0.00,,,0.00,0.000000,,2013-02-06 14:52:00,
2013-02-06 08:01:00,22.0,21.0,-100.00,SW,235,7.0,11.0,94,0.00,,,0.00,0.000000,,2013-02-06 15:01:00,
2013-02-06 08:32:00,22.0,21.0,-100.00,SSW,209,6.0,9.0,94,0.00,,,0.00,2.000000,,2013-02-06 15:32:00,
2013-02-06 08:42:00,22.0,21.0,-100.00,SSW,209,6.0,9.0,94,0.00,,,0.00,2.000000,,2013-02-06 15:42:00,
2013-02-06 08:52:00,22.0,21.0,-100.00,SSW,209,6.0,9.0,94,0.00,,,0.00,2.000000,,2013-02-06 15:52:00,
2013-02-06 09:01:00,22.0,21.0,-100.00,SSW,209,6.0,9.0,94,0.00,,,0.00,2.000000,,2013-02-06 16:01:00,
2013-02-06 09:32:00,23.0,21.0,-100.00,SSW,207,8.0,14.0,93,0.00,,,0.00,31.000000,,2013-02-06 16:32:00,
2013-02-06 09:42:00,23.0,21.0,-100.00,SSW,207,8.0,14.0,93,0.00,,,0.00,31.000000,,2013-02-06 16:42:00,
2013-02-06 09:52:00,23.0,21.0,-100.00,SSW,207,8.0,14.0,93,0.00,,,0.00,31.000000,,2013-02-06 16:52:00,
2013-02-06 10:01:00,23.0,21.0,-100.00,SSW,207,8.0,14.0,93,0.00,,,0.00,31.000000,,2013-02-06 17:01:00,
2013-02-06 10:32:00,27.0,23.0,-100.00,SW,221,9.0,16.0,84,0.00,,,0.00,249.000000,,2013-02-06 17:32:00,
2013-02-06 10:42:00,27.0,23.0,-100.00,SW,221,9.0,16.0,84,0.00,,,0.00,249.000000,,2013-02-06 17:42:00,
2013-02-06 10:52:00,27.0,23.0,-100.00,SW,221,9.0,16.0,84,0.00,,,0.00,249.000000,,2013-02-06 17:52:00,
2013-02-06 11:01:00,27.0,23.0,-100.00,SW,221,9.0,16.0,84,0.00,,,0.00,249.000000,,2013-02-06 18:01:00,
2013-02-06 11:33:00,26.0,21.0,-100.00,SSW,201,10.0,16.0,80,0.01,,,0.01,272.000000,,2013-02-06 18:33:00,
2013-02-06 11:42:00,26.0,21.0,-100.00,SSW,201,10.0,16.0,80,0.01,,,0.01,272.000000,,2013-02-06 18:42:00,
2013-02-06 11:52:00,26.0,21.0,-100.00,SSW,201,10.0,16.0,80,0.01,,,0.01,272.000000,,2013-02-06 18:52:00,
2013-02-06 12:01:00,26.0,21.0,-100.00,SSW,201,10.0,16.0,80,0.01,,,0.01,272.000000,,2013-02-06 19:01:00,
2013-02-06 12:32:00,31.0,20.0,-100.00,SSW,202,15.0,20.0,63,0.01,,,0.02,412.000000,,2013-02-06 19:32:00,
2013-02-06 12:42:00,31.0,20.0,-100.00,SSW,202,15.0,20.0,63,0.01,,,0.02,412.000000,,2013-02-06 19:42:00,
2013-02-06 12:52:00,31.0,20.0,-100.00,SSW,202,15.0,20.0,63,0.01,,,0.02,412.000000,,2013-02-06 19:52:00,
2013-02-06 13:01:00,31.0,20.0,-100.00,SSW,202,15.0,20.0,63,0.01,,,0.02,412.000000,,2013-02-06 20:01:00,
2013-02-06 13:32:00,28.0,18.0,-100.00,SSW,199,12.0,21.0,65,0.00,,,0.02,435.000000,,2013-02-06 20:32:00,
2013-02-06 13:42:00,28.0,18.0,-100.00,SSW,199,12.0,21.0,65,0.00,,,0.02,435.000000,,2013-02-06 20:42:00,
2013-02-06 13:52:00,28.0,18.0,-100.00,SSW,199,12.0,21.0,65,0.00,,,0.02,435.000000,,2013-02-06 20:52:00,
2013-02-06 14:01:00,28.0,18.0,-100.00,SSW,199,12.0,21.0,65,0.00,,,0.02,435.000000,,2013-02-06 21:01:00,
2013-02-06 14:32:00,31.0,15.0,-100.00,SW,223,15.0,28.0,50,0.00,,,0.02,558.000000,,2013-02-06 21:32:00,
2013-02-06 14:42:00,31.0,15.0,-100.00,SW,223,15.0,28.0,50,0.00,,,0.02,558.000000,,2013-02-06 21:42:00,
2013-02-06 14:52:00,31.0,15.0,-100.00,SW,223,15.0,28.0,50,0.00,,,0.02,558.000000,,2013-02-06 21:52:00,
2013-02-06 15:01:00,31.0,15.0,-100.00,SW,223,15.0,28.0,50,0.00,,,0.02,558.000000,,2013-02-06 22:01:00,
2013-02-06 15:32:00,30.0,15.0,-100.00,SW,233,7.0,24.0,53,0.00,,,0.02,317.000000,,2013-02-06 22:32:00,
2013-02-06 15:42:00,30.0,15.0,-100.00,SW,233,7.0,24.0,53,0.00,,,0.02,317.000000,,2013-02-06 22:42:00,
2013-02-06 15:52:00,30.0,15.0,-100.00,SW,233,7.0,24.0,53,0.00,,,0.02,317.000000,,2013-02-06 22:52:00,
2013-02-06 16:01:00,30.0,15.0,-100.00,SW,233,7.0,24.0,53,0.00,,,0.02,317.000000,,2013-02-06 23:01:00,
2013-02-06 16:32:00,31.0,15.0,-100.00,WSW,246,9.0,20.0,52,0.00,,,0.02,368.000000,,2013-02-06 23:32:00,
2013-02-06 16:42:00,31.0,15.0,-100.00,WSW,246,9.0,20.0,52,0.00,,,0.02,368.000000,,2013-02-06 23:42:00,
2013-02-06 16:52:00,31.0,15.0,-100.00,WSW,246,9.0,20.0,52,0.00,,,0.02,368.000000,,2013-02-06 23:52:00,
2013-02-06 17:01:00,31.0,15.0,-100.00,WSW,246,9.0,20.0,52,0.00,,,0.02,368.000000,,2013-02-07 00:01:00,
2013-02-06 17:32:00,26.0,14.0,-100.00,SW,218,9.0,17.0,60,0.00,,,0.02,69.000000,,2013-02-07 00:32:00,
2013-02-06 17:42:00,26.0,14.0,-100.00,SW,218,9.0,17.0,60,0.00,,,0.02,69.000000,,2013-02-07 00:42:00,
2013-02-06 17:52:00,26.0,14.0,-100.00,SW,218,9.0,17.0,60,0.00,,,0.02,69.000000,,2013-02-07 00:52:00,
2013-02-06 18:01:00,26.0,14.0,-100.00,SW,218,9.0,17.0,60,0.00,,,0.02,69.000000,,2013-02-07 01:01:00,
2013-02-06 18:32:00,24.0,15.0,-100.00,WSW,248,3.0,12.0,68,0.00,,,0.02,26.000000,,2013-02-07 01:32:00,
2013-02-06 18:42:00,24.0,15.0,-100.00,WSW,248,3.0,12.0,68,0.00,,,0.02,26.000000,,2013-02-07 01:42:00,
2013-02-06 18:52:00,24.0,15.0,-100.00,WSW,248,3.0,12.0,68,0.00,,,0.02,26.000000,,2013-02-07 01:52:00,
2013-02-06 19:01:00,24.0,15.0,-100.00,WSW,248,3.0,12.0,68,0.00,,,0.02,26.000000,,2013-02-07 02:01:00,
2013-02-06 19:32:00,23.0,15.0,-100.00,South,180,1.0,5.0,70,0.00,,,-99.99,0.000000,,2013-02-07 02:32:00,
2013-02-06 19:42:00,23.0,15.0,-100.00,South,180,1.0,5.0,70,0.00,,,-99.99,0.000000,,2013-02-07 02:42:00,
2013-02-06 19:52:00,23.0,15.0,-100.00,South,180,1.0,5.0,70,0.00,,,-99.99,0.000000,,2013-02-07 02:52:00,
2013-02-06 20:01:00,23.0,15.0,-100.00,South,180,1.0,5.0,70,0.00,,,-99.99,0.000000,,2013-02-07 03:01:00,
2013-02-06 20:32:00,22.0,15.0,-100.00,North,358,4.0,5.0,73,0.00,,,0.02,0.000000,,2013-02-07 03:32:00,
2013-02-06 20:42:00,22.0,15.0,-100.00,North,358,4.0,5.0,73,0.00,,,0.02,0.000000,,2013-02-07 03:42:00,
2013-02-06 20:52:00,22.0,15.0,-100.00,North,358,4.0,5.0,73,0.00,,,0.02,0.000000,,2013-02-07 03:52:00,
2013-02-06 21:01:00,22.0,15.0,-100.00,North,358,4.0,5.0,73,0.00,,,0.02,0.000000,,2013-02-07 04:01:00,
2013-02-06 21:32:00,22.0,14.0,-100.00,East,81,4.0,7.0,70,0.00,,,0.02,0.000000,,2013-02-07 04:32:00,
2013-02-06 21:42:00,22.0,14.0,-100.00,East,81,4.0,7.0,70,0.00,,,0.02,0.000000,,2013-02-07 04:42:00,
2013-02-06 21:53:00,22.0,14.0,-100.00,East,81,4.0,7.0,70,0.00,,,0.02,0.000000,,2013-02-07 04:53:00,
2013-02-06 22:01:00,22.0,14.0,-100.00,East,81,4.0,7.0,70,0.00,,,0.02,0.000000,,2013-02-07 05:01:00,
2013-02-06 22:32:00,22.0,14.0,-100.00,North,6,4.0,6.0,71,0.00,,,0.02,0.000000,,2013-02-07 05:32:00,
2013-02-06 22:42:00,22.0,14.0,-100.00,North,6,4.0,6.0,71,0.00,,,0.02,0.000000,,2013-02-07 05:42:00,
2013-02-06 22:52:00,22.0,14.0,-100.00,North,6,4.0,6.0,71,0.00,,,0.02,0.000000,,2013-02-07 05:52:00,
2013-02-06 23:01:00,22.0,14.0,-100.00,North,6,4.0,6.0,71,0.00,,,0.02,0.000000,,2013-02-07 06:01:00,
2013-02-06 23:32:00,22.0,13.0,-100.00,NNE,12,4.0,8.0,68,0.00,,,0.02,0.000000,,2013-02-07 06:32:00,
2013-02-06 23:43:00,22.0,13.0,-100.00,NNE,12,4.0,8.0,68,0.00,,,0.02,0.000000,,2013-02-07 06:43:00,
2013-02-06 23:52:00,22.0,13.0,-100.00,NNE,12,4.0,8.0,68,0.00,,,0.02,0.000000,,2013-02-07 06:52:00,